Location: Brusselsch Zeekanaal
(50.8667°N, 4.3667°E)
Time: 22:42:28
(UTC+00:00)

Cosmos 2100 Rocket - Pass Details

Date: 08 November 2025
Orbit: 954 x 1000 km, 82.9° (Epoch: 04 December)

Event Time Altitude Azimuth Distance (km) Brightness Sun altitude
Rises 04:22:48 0° 348° (NNW) 3,646 6.9 -22.8°
Reaches altitude 10° 04:25:18 10° 346° (NNW) 2,695 6.2 -22.4°
Maximum altitude 04:31:25 69° 265° (W) 1,020 3.8 -21.4°
Drops below altitude 10° 04:37:30 10° 183° (S) 2,687 6.3 -20.5°
Sets 04:40:00 0° 181° (S) 3,634 7.0 -20.1°
